TimeCDT,TemperatureF,Dew PointF,Humidity,Sea Level PressureIn,VisibilityMPH,Wind Direction,Wind SpeedMPH,Gust SpeedMPH,PrecipitationIn,Events,Conditions,WindDirDegrees,DateUTC
1:53 AM,26.1,7.0,44,30.12,10.0,Calm,Calm,-,N/A,,Clear,0,2013-03-21 06:53:00
2:53 AM,21.0,12.0,68,30.09,10.0,Calm,Calm,-,N/A,,Clear,0,2013-03-21 07:53:00
3:53 AM,21.0,12.0,68,30.10,9.0,Calm,Calm,-,N/A,,Clear,0,2013-03-21 08:53:00
4:53 AM,23.0,15.1,72,30.10,10.0,Calm,Calm,-,N/A,,Clear,0,2013-03-21 09:53:00
5:53 AM,21.9,12.0,66,30.09,10.0,Calm,Calm,-,N/A,,Clear,0,2013-03-21 10:53:00
6:53 AM,23.0,16.0,74,30.09,10.0,Calm,Calm,-,N/A,,Mostly Cloudy,0,2013-03-21 11:53:00
7:53 AM,25.0,14.0,63,30.10,10.0,Calm,Calm,-,N/A,,Overcast,0,2013-03-21 12:53:00
8:53 AM,27.0,12.0,53,30.12,10.0,East,5.8,-,N/A,,Overcast,80,2013-03-21 13:53:00
9:53 AM,28.0,12.0,51,30.11,10.0,East,4.6,-,N/A,,Overcast,90,2013-03-21 14:53:00
10:53 AM,30.0,8.1,40,30.11,10.0,ENE,3.5,-,N/A,,Overcast,70,2013-03-21 15:53:00
11:53 AM,32.0,10.9,42,30.07,10.0,East,5.8,-,N/A,,Overcast,90,2013-03-21 16:53:00
12:53 PM,36.0,10.0,34,30.04,10.0,Variable,6.9,-,N/A,,Overcast,0,2013-03-21 17:53:00
1:53 PM,37.0,10.9,34,29.99,10.0,SSE,4.6,-,N/A,,Overcast,160,2013-03-21 18:53:00
3:12 PM,33.8,19.4,56,29.96,4.0,East,6.9,-,0.00,Snow,Light Snow,100,2013-03-21 20:12:00
3:16 PM,32.0,21.2,64,29.96,1.8,East,6.9,-,0.00,Snow,Light Snow,90,2013-03-21 20:16:00
3:20 PM,32.0,23.0,69,29.96,0.8,ESE,3.5,-,0.00,Snow,Light Snow,120,2013-03-21 20:20:00
3:39 PM,30.2,24.8,80,29.97,0.2,SSE,4.6,-,0.00,Snow,Heavy Snow,160,2013-03-21 20:39:00
3:53 PM,28.9,27.0,92,30.01,0.2,Calm,Calm,-,0.00,Fog-Snow,Snow,0,2013-03-21 20:53:00
4:00 PM,28.4,26.6,93,29.96,0.2,ESE,5.8,-,0.00,Fog-Snow,Snow,110,2013-03-21 21:00:00
4:21 PM,28.4,26.6,93,29.96,0.5,SSE,4.6,-,0.00,Fog-Snow,Snow,160,2013-03-21 21:21:00
4:44 PM,28.4,26.6,93,29.97,0.5,South,4.6,-,0.00,Fog-Snow,Snow,170,2013-03-21 21:44:00
4:53 PM,28.9,27.0,92,30.01,0.5,South,3.5,-,0.00,Fog-Snow,Snow,180,2013-03-21 21:53:00
5:00 PM,28.4,26.6,93,29.97,0.5,South,3.5,-,0.00,Fog-Snow,Light Snow,170,2013-03-21 22:00:00
5:53 PM,28.9,27.0,92,29.99,0.5,ESE,5.8,-,0.00,Fog-Snow,Snow,110,2013-03-21 22:53:00
6:02 PM,28.4,26.6,93,29.95,0.2,ESE,4.6,-,0.00,Fog-Snow,Snow,110,2013-03-21 23:02:00
6:29 PM,28.4,26.6,93,29.94,0.2,East,6.9,-,0.00,Fog-Snow,Heavy Snow,100,2013-03-21 23:29:00
6:53 PM,28.9,27.0,92,29.98,0.2,ESE,5.8,-,0.00,Fog-Snow,Snow,110,2013-03-21 23:53:00
7:15 PM,28.4,26.6,93,29.95,0.2,East,4.6,-,0.00,Fog-Snow,Snow,100,2013-03-22 00:15:00
7:25 PM,28.4,26.6,93,29.95,1.2,East,3.5,-,0.00,Snow,Light Snow,100,2013-03-22 00:25:00
7:40 PM,28.4,26.6,93,29.95,0.8,East,4.6,-,0.00,Snow,Light Snow,100,2013-03-22 00:40:00
7:53 PM,28.9,27.0,92,29.99,0.5,East,4.6,-,0.00,Fog-Snow,Snow,100,2013-03-22 00:53:00
8:04 PM,28.4,26.6,93,29.95,0.8,East,5.8,-,0.00,Snow,Light Snow,100,2013-03-22 01:04:00
8:28 PM,28.4,26.6,93,29.95,0.5,ESE,6.9,-,0.00,Fog-Snow,Snow,120,2013-03-22 01:28:00
8:53 PM,28.9,26.1,89,29.99,0.5,ESE,5.8,-,0.00,Fog-Snow,Snow,110,2013-03-22 01:53:00
9:21 PM,28.4,26.6,93,29.95,1.0,ESE,6.9,-,0.00,Snow,Light Snow,120,2013-03-22 02:21:00
9:33 PM,28.4,26.6,93,29.95,1.0,SE,4.6,-,0.00,Snow,Light Snow,130,2013-03-22 02:33:00
9:53 PM,28.0,26.1,92,29.99,1.0,ESE,6.9,-,0.00,Snow,Light Snow,120,2013-03-22 02:53:00
10:02 PM,28.4,26.6,93,29.95,1.0,ESE,6.9,-,0.00,Snow,Light Snow,120,2013-03-22 03:02:00
10:18 PM,28.4,26.6,93,29.95,1.5,ESE,8.1,-,0.00,Snow,Light Snow,120,2013-03-22 03:18:00
10:25 PM,28.4,26.6,93,29.95,2.5,ESE,6.9,-,0.00,Snow,Light Snow,110,2013-03-22 03:25:00
10:41 PM,28.4,26.6,93,29.94,1.2,ESE,6.9,-,0.00,Snow,Light Snow,120,2013-03-22 03:41:00
10:44 PM,28.4,26.6,93,29.94,1.0,ESE,9.2,-,0.00,Snow,Light Snow,120,2013-03-22 03:44:00
10:53 PM,28.9,26.1,89,29.97,1.0,ESE,8.1,-,0.00,Snow,Light Snow,120,2013-03-22 03:53:00
11:05 PM,28.4,26.6,93,29.95,1.2,ESE,8.1,-,0.00,Snow,Light Snow,120,2013-03-22 04:05:00
11:32 PM,28.4,26.6,93,29.95,1.0,SE,5.8,-,0.00,Snow,Light Snow,130,2013-03-22 04:32:00
11:39 PM,28.4,26.6,93,29.95,1.5,SE,4.6,-,0.00,Snow,Light Snow,130,2013-03-22 04:39:00
11:48 PM,28.4,26.6,93,29.95,2.0,SE,6.9,-,0.00,Snow,Light Snow,140,2013-03-22 04:48:00
11:53 PM,28.9,26.1,89,29.98,1.8,SE,5.8,-,0.00,Snow,Light Snow,130,2013-03-22 04:53:00